Location: Unspecified
(0.0000°N, 0.0000°E)
Time: 23:43:50
(UTC+01:00)

Cosmos 1892 Rocket - Visible Passes

Search period start: 04 March 2015 00:00
Search period end: 14 March 2015 00:00
Orbit: 608 x 634 km, 82.5° (Epoch: 03 March)

Date Brightness Start Highest point End Pass type
(mag) Time Alt. Az. Time Alt. Az. Time Alt. Az.
04 Mar 5.5 05:38:39 10° SSE 05:42:26 30° E 05:46:18 10° NNE visible
05 Mar 3.7 05:56:01 10° S 06:00:21 74° E 06:04:41 10° N visible
06 Mar 3.8 06:14:04 10° SSW 06:18:15 44° W 06:22:23 10° NNW visible
07 Mar 6.4 04:55:55 10° SE 04:58:22 15° E 05:01:04 10° ENE visible
07 Mar 4.8 06:32:59 10° SW 06:36:11 19° W 06:39:14 10° NW visible
08 Mar 5.1 05:12:23 10° SSE 05:16:20 35° E 05:20:21 10° NNE visible
09 Mar 3.4 05:29:52 10° S 05:34:14 87° E 05:38:37 10° N visible
10 Mar 5.6 05:55:31 14° NNW 05:55:31 14° NNW 05:56:11 10° NNW visible
